Regional Weather Roundup
Issued by NWS

Home | Current Version | Previous Version | Graphics & Text | Print | Product List | Glossary On
Versions: 1 2 3 4 5 6 7 8 9 10 11 12 13 14 15 16 17 18 19 20 21 22 23 24 25 26 27 28 29 30 31 32 33 34 35 36 37 38 39 40 41 42 43 44 45 46 47 48 49 50
000
ASUS43 KLOT 281006
RWRIL

ILLINOIS REGIONAL WEATHER ROUNDUP
NATIONAL WEATHER SERVICE CHICAGO/ROMEOVILLE IL
500 AM CDT THU AUG 28 2014

NOTE: "FAIR" INDICATES FEW OR NO CLOUDS BELOW 12,000 FEET WITH NO
SIGNIFICANT WEATHER AND/OR OBSTRUCTIONS TO VISIBILITY.

* THESE STATIONS ARE NOT UNDER NWS QUALITY CONTROL. THEY ALSO MAY NOT
  REPORT WEATHER SUCH AS PRECIPITATION OR FOG.

ILZ001-002-007-009-015-016-024-281100-
NORTHWEST ILLINOIS

CITY           SKY/WX    TMP DP  RH WIND       PRES   REMARKS
MOLINE         CLOUDY    66  62  87 E8        30.08S
STERLING*      PTCLDY    63  59  88 E5        30.11S
SAVANNA*       MOCLDY    64  61  88 E6        30.11R
$$

ILZ003-004-008-010-011-017-018-281100-
NORTH CENTRAL ILLINOIS

CITY           SKY/WX    TMP DP  RH WIND       PRES   REMARKS
ROCKFORD       PTCLDY    63  60  90 E3        30.13F
FREEPORT*      PTCLDY    60  59  97 E5        30.14F FOG
ROCHELLE*      CLEAR     62  60  94 E6        30.12S
DE KALB*       PTCLDY    59  58  97 NE5       30.13S FOG
PERU*          CLEAR     63  61  92 E6        30.11S
$$

ILZ005-006-012>014-019>023-281100-
NORTHEAST ILLINOIS

CITY           SKY/WX    TMP DP  RH WIND       PRES   REMARKS
CHICAGO-OHARE  MOCLDY    68  56  65 E8        30.12S
CHICAGO-MIDWAY CLOUDY    70  59  68 E10       30.12S
AURORA         CLEAR     62  59  90 NE3       30.12F
LANSING*       CLEAR     63  57  82 E6        30.13S
JOLIET*        CLEAR     62  58  87 CALM      30.13S
WAUKEGAN       CLEAR     64  55  72 E8        30.13S
DUPAGE AIRPORT PTCLDY    65  59  81 E5        30.12S
KANKAKEE*      PTCLDY    60  58  91 E3        30.12S
WHEELING       CLOUDY    68  58  70 E5        30.14S
MORRIS*        CLEAR     62  62 100 CALM      30.11S FOG
ROMEOVILLE*    CLEAR     64  60  88 E6        30.12S
NORTHERLY ISL    N/A     69  58  67 NE15        N/A
$$

LMZ740>746-281100-
SOUTHERN LAKE MICHIGAN

STATION/POSITION SKY/WX   TEMP    WIND        PRES    VSBY  WAVE
                          AIR SEA DIR/SP/G                  HT/PER
                          (F)     (DEG/KT/KT) (MB)    (MI)  (FT/S)
SOUTHERN BUOY              65 69   80/ 14/ 16 1020.8F         1/ 3
WAUKEGAN HARBOR            68      80/ 14/ 16   N/A
HARRISON CRIB              68      80/ 16/ 19   N/A
BURNHAM HARBOR             69      60/ 14/ 16   N/A
CALUMET HARBOR             69      40/ 11/ 14 1018.7F
MICHIGAN CITY              62      50/  7/  9   N/A
MICHIGAN CITY 6N           66 73   90/ 12/ 16   N/A           3/ 5
ST. JOSEPH                 64 72   60/ 12/ 16   N/A           2/ 4
$$

ILZ025>027-034>036-040-047-049-050-058-095>099-281100-
WEST-CENTRAL ILLINOIS

CITY           SKY/WX    TMP DP  RH WIND       PRES   REMARKS
QUINCY         PTCLDY    71  68  90 SE5       30.04F
GALESBURG*     CLOUDY    67  62  85 E9        30.08R
MACOMB*        MOCLDY    68  68  99 E5        30.08R
JACKSONVILLE*  PTCLDY    72  71  97 NE7       30.07R FOG
PITTSFIELD*    PTCLDY    70  67  92 CALM      30.06S
$$

ILZ028>032-037-038-041>044-048-051>054-059>061-281100-
CENTRAL ILLINOIS

CITY           SKY/WX    TMP DP  RH WIND       PRES   REMARKS
PONTIAC        PTCLDY    64  61  88 E3        30.11S
DECATUR        CLOUDY    67  64  90 NE9       30.08F
PEORIA         MOCLDY    69  59  70 E10       30.08F
LACON*         PTCLDY    64  60  87 E5        30.09F
LINCOLN*       MOCLDY    68  62  81 E6        30.06S
SPRINGFIELD    CLOUDY    70  67  90 E10       30.07R
TAYLORVILLE    PTCLDY    68  66  94 E8        30.06S
$$

ILZ033-039-045-046-055>057-062-063-281100-
EAST-CENTRAL ILLINOIS

CITY           SKY/WX    TMP DP  RH WIND       PRES   REMARKS
CHAMPAIGN      CLOUDY    65  62  90 NE9       30.10R
DANVILLE*      LGT RAIN  63  62  95 NE3       30.08S
RANTOUL*       MOCLDY    66  62  86 E7        30.11F
MATTOON        CLOUDY    68  66  93 NE6       30.07S
PARIS*         MOCLDY    66  64  93 CALM      30.10S
$$

ILZ079-100>102-281100-
SOUTHWEST ILLINOIS

CITY           SKY/WX    TMP DP  RH WIND       PRES   REMARKS
BELLEVILLE     PTCLDY    71  71 100 NE1       30.04S
SPARTA*        PTCLDY    71  70  98 CALM      30.05S
$$

ILZ064>066-069>071-074>076-080>082-084>086-088>090-092>094-281100-
SOUTH-CENTRAL ILLINOIS

CITY           SKY/WX    TMP DP  RH WIND       PRES   REMARKS
CARBONDALE     CLOUDY    73  71  93 CALM      30.04R
CAIRO*         PTCLDY    74  70  89 CALM      30.02S
EFFINGHAM*     RAIN      71  66  86 E3        30.06R
MARION         CLOUDY    75  72  88 CALM      30.04S
MT. VERNON     CLOUDY    72  66  83 CALM      30.05R
CENTRALIA*     MOCLDY    72  70  94 CALM      30.04S FOG
SALEM*         MOCLDY    74  73  95 CALM      30.05S FOG
METROPOLIS*    PTCLDY    73  73  99 CALM      30.02S
$$

ILZ067-068-072-073-078-083-087-091-281100-
SOUTHEAST ILLINOIS

CITY           SKY/WX    TMP DP  RH WIND       PRES   REMARKS
LAWRENCEVILLE  PTCLDY    72  70  93 NE5       30.05S
FLORA*         PTCLDY    72  70  93 NE5       30.05R
FAIRFIELD*     CLOUDY    73  72  94 NE3       30.04R
HARRISBURG*    MOCLDY    72  72 100 CALM      30.05R
ROBINSON*      PTCLDY    70  69  96 CALM      30.07S
CARMI*           N/A     73  73  97 CALM      30.03S
$$

ABBREVIATIONS USED IN REMARKS
   TC - TEMPERATURE IN CELSIUS
  WCI - WIND CHILL INDEX
   HX - HEAT INDEX
  VSB - VISIBILITY
$$




USA.gov is the U.S. government's official web portal to all federal, state and local government web resources and services.